Regional Weather Roundup
Issued by NWS State College, PA

Home | Current Version | Previous Version | Graphics & Text | Print | Product List | Glossary On
Versions: 1 2 3 4 5 6 7 8 9 10 11 12 13 14 15 16 17 18 19 20 21 22 23 24 25 26 27 28 29 30 31 32 33 34 35 36 37 38 39 40 41 42 43 44 45 46 47 48 49 50
000
ASUS41 KCTP 271103
RWRCTP

REGIONAL WEATHER ROUNDUP
NATIONAL WEATHER SERVICE STATE COLLEGE PA
700 AM EDT WED JUL 27 2016

Note: "fair" indicates few or no clouds below 12,000 feet with no
significant weather and/or obstructions to visibility.

* = STATION THAT DOES NOT REPORT PRECIPITATION /E.G. RAIN...SNOW...ETC/
    THUNDER OR FOG.

PAZ002>004-007>009-013>016-020>023-029>032-271200-
WESTERN PENNSYLVANIA

CITY           SKY/WX    TMP DP  RH WIND       PRES   REMARKS
ERIE           CLEAR     65  58  78 S7        30.02R
MEADVILLE      CLOUDY    62  58  86 SE3       30.06R
FRANKLIN*      CLOUDY    59  55  88 CALM      30.08R
NEW CASTLE     CLOUDY    64  63  96 CALM      30.06R
BEAVER COUNTY  CLOUDY    68  61  77 N3        30.05
BUTLER*        CLOUDY    64  61  88 N5        30.07R
PITTSBURGH INT CLOUDY    71  62  73 NE5       30.03R
PITTSBURGH     CLOUDY    70  62  76 CALM      30.03R
INDIANA*       MOCLDY    64  63  94 CALM      30.09R
LATROBE        MOCLDY    66  66 100 CALM      30.04S
WASHINGTON CO* CLOUDY    66  64  94 CALM      30.04R
$$

PAZ004>006-010>012-017>019-024>028-033>037-041-042-045-046-049>053-271200-
CENTRAL PENNSYLVANIA

CITY           SKY/WX    TMP DP  RH WIND       PRES   REMARKS
BRADFORD       CLEAR     55  52  89 CALM      30.08R
DUBOIS         CLOUDY    63  57  81 NE3       30.06R
CLEARFIELD     CLOUDY    61  57  87 CALM      30.07R
JOHNSTOWN      CLOUDY    67  58  72 SW5       30.08R
ALTOONA        PTCLDY    66  60  81 S3        30.04S
STATE COLLEGE  PTCLDY    63  61  94 CALM      30.03R
WILLIAMSPORT   CLEAR     65  60  84 CALM      30.01R
SELINSGROVE    CLEAR     66  66 100 CALM      30.01R
FT INDIANTOWN  CLEAR     68  63  83 CALM      29.98R
CAPITAL CITY   MOCLDY    74  65  73 CALM      29.98R
HARRISBURG     MOCLDY    75  64  68 VRB3      29.97R
YORK           PTCLDY    71  67  87 CALM      29.98R
$$

PAZ038>040-043-044-047-048-054-055-060>062-067>071-271200-
EASTERN PENNSYLVANIA

CITY           SKY/WX    TMP DP  RH WIND       PRES   REMARKS
SCRANTON       SUNNY     64  60  87 E3        30.02R
MOUNT POCONO   SUNNY     61  32  33 CALM      30.04R
ALLENTOWN      PTSUNNY   70  65  84 CALM      29.98R
QUAKERTOWN*    CLOUDY    70  66  88 CALM      29.99R
READING        MOSUNNY   72  63  73 N3        29.97R
LANCASTER      CLOUDY    72  65  78 N3        29.97R
COATESVILLE    CLOUDY    73  64  73 N5        29.99R
POTTSTOWN      CLOUDY    72  64  76 NE6       29.98S
BLUE BELL      CLOUDY    70  64  83 CALM      29.95S
DOYLESTOWN     CLOUDY    72  64  76 NE3       29.96S
WILLOW GROVE   NOT AVBL
NORTH PHILA    CLOUDY    75  66  73 NE6       29.96S
PHILADELPHIA   CLOUDY    78  64  61 NE8       29.95S
$$




USA.gov is the U.S. government's official web portal to all federal, state and local government web resources and services.